Regional Weather Roundup
Issued by NWS

Home | Current Version | Previous Version | Text Only | Print | Product List | Glossary On
Versions: 1 2 3 4 5 6 7 8 9 10 11 12 13 14 15 16 17 18 19 20 21 22 23 24 25 26 27 28 29 30 31 32 33 34 35 36 37 38 39 40 41 42 43 44 45 46 47 48 49 50
000
ASUS45 KREV 200310
RWRNV
NEVADA REGIONAL WEATHER ROUNDUP
NATIONAL WEATHER SERVICE RENO NV
800 PM PDT FRI SEP 19 2014

NOTE: "FAIR" INDICATES FEW OR NO CLOUDS BELOW 12,000 FEET WITH NO
SIGNIFICANT WEATHER AND/OR OBSTRUCTIONS TO VISIBILITY.

NVZ001-003-004-200400-
WESTERN NEVADA

CITY           SKY/WX    TMP DP  RH WIND       PRES   REMARKS
RENO           PTCLDY    76  39  26 CALM      30.01R
CARSON CITY    FAIR      75  34  22 NE8       30.02S
SLIDE MTN        N/A     52  32  46 E25         N/A
FALLON         PTCLDY    74  40  29 NW7       29.95R
LOVELOCK       CLEAR     79  41  25 N10       29.95R
HAWTHORNE      CLEAR     75  36  23 CALM      29.97R
$$

NVZ002-CAZ072-073-200400-
NORTHERN AND CENTRAL SIERRA

CITY           SKY/WX    TMP DP  RH WIND       PRES   REMARKS
S. LAKE TAHOE  CLEAR     62  35  36 CALM      30.11R
TRUCKEE        CLEAR     59  36  41 S3        30.11S
SQUAW VLY 8000 NOT AVBL
SUSANVILLE     CLEAR     72  39  30 W7        30.01S
BLUE CANYON    PTCLDY    65  51  60 NE5       30.08R
MAMMOTH LAKES  FAIR      61  30  31 E5        30.16S
BRIDGEPORT     FAIR      67  31  26 N6        30.12R
$$

NVZ030-031-036-200400-
NORTHERN NEVADA

CITY           SKY/WX    TMP DP  RH WIND       PRES   REMARKS
ELKO           CLEAR     69  42  37 E5        30.07R
WINNEMUCCA     CLEAR     72  36  26 NE6       30.02R
WENDOVER       CLEAR     72  45  37 W3        30.06R
$$

NVZ035-037-200400-
CENTRAL NEVADA

CITY           SKY/WX    TMP DP  RH WIND       PRES   REMARKS
ELY            CLEAR     63  34  33 S9        30.13R
EUREKA           N/A     67  37  33 NW6       30.09R
$$

NVZ013-014-200400-
SOUTH CENTRAL NEVADA

CITY           SKY/WX    TMP DP  RH WIND       PRES   REMARKS
TONOPAH        CLEAR     71  26  18 SW6       30.06R
$$

NVZ017-020-022-200400-
SOUTHERN NEVADA

CITY           SKY/WX    TMP DP  RH WIND       PRES   REMARKS
LAS VEGAS      CLEAR     92  35  13 S12       29.80R
N. LAS VEGAS   CLEAR     89  34  14 SE6       29.83R
NELLIS AFB     CLEAR     90  38  15 SE6       29.81R
HENDERSON      CLEAR     88  33  14 SE13      29.87R
MERCURY        CLEAR     80  37  21 NW3       29.91R
$$


USA.gov is the U.S. government's official web portal to all federal, state and local government web resources and services.